SAS526 EGLL-ESSA

Flight info

Callsign SAS526
Flight time N/A
Altitude 35000
Route BPK Q295 SOMVA DCT MAVAS DCT ANDIK N873 JUIST DCT DOSUR DCT MIKNA N851 PELUP Z226 NILUG
Aircraft A320/M-SDE3FGHIRWY/LB1

Departure

Time N/A
Airport London Heathrow Airport (EGLL)

Arrival

Time 2026-05-05 01:10
Airport Stockholm-Arlanda Airport (ESSA)
Time Latitude Longitude Altitude Speed Heading
2026-05-04 23:24 51.92770 1.10386 17067 ft 394 kts 68°
2026-05-04 23:24 51.95637 1.21642 17064 ft 393 kts 68°
2026-05-04 23:25 51.96677 1.25742 17063 ft 393 kts 68°
2026-05-04 23:25 51.97716 1.29849 17066 ft 394 kts 68°
2026-05-04 23:25 51.98750 1.33945 17063 ft 393 kts 68°
2026-05-04 23:25 51.99785 1.38062 17057 ft 394 kts 68°
2026-05-04 23:26 52.00817 1.42173 17057 ft 393 kts 68°
2026-05-04 23:26 52.01852 1.46296 17057 ft 394 kts 68°
2026-05-04 23:26 52.02887 1.50417 17059 ft 394 kts 68°
2026-05-04 23:26 52.03921 1.54535 17059 ft 396 kts 68°
2026-05-04 23:27 52.04959 1.58686 17056 ft 396 kts 68°
2026-05-04 23:27 52.05991 1.62827 17054 ft 396 kts 68°
2026-05-04 23:27 52.06689 1.65636 17057 ft 396 kts 68°
2026-05-04 23:27 52.07720 1.69785 17054 ft 396 kts 68°
2026-05-04 23:28 52.08752 1.73936 17054 ft 397 kts 68°
2026-05-04 23:28 52.09784 1.78091 17052 ft 396 kts 68°
2026-05-04 23:28 52.10810 1.82243 17051 ft 396 kts 68°
2026-05-04 23:28 52.11835 1.86402 17052 ft 396 kts 68°
2026-05-04 23:29 52.12856 1.90559 17054 ft 396 kts 68°
2026-05-04 23:29 52.13880 1.94726 17052 ft 396 kts 68°
2026-05-04 23:29 52.14901 1.98888 17043 ft 397 kts 68°
2026-05-04 23:29 52.15926 2.03064 17045 ft 398 kts 68°
2026-05-04 23:30 52.16954 2.07249 17045 ft 397 kts 68°
2026-05-04 23:30 52.17979 2.11426 17051 ft 398 kts 68°
2026-05-04 23:30 52.19000 2.15620 17051 ft 397 kts 68°
2026-05-04 23:30 52.20014 2.19805 17043 ft 398 kts 68°
2026-05-04 23:31 52.21030 2.24005 17043 ft 398 kts 68°
2026-05-04 23:31 52.22046 2.28205 17066 ft 399 kts 68°
2026-05-04 23:31 52.23067 2.32436 17608 ft 402 kts 68°
2026-05-04 23:31 52.24091 2.36694 18240 ft 405 kts 68°
2026-05-04 23:32 52.25139 2.41049 18731 ft 408 kts 68°
2026-05-04 23:32 52.26177 2.45371 19288 ft 411 kts 68°
2026-05-04 23:32 52.27222 2.49734 19778 ft 415 kts 68°
2026-05-04 23:32 52.28278 2.54139 20284 ft 418 kts 68°
2026-05-04 23:33 52.29341 2.58586 20765 ft 421 kts 68°
2026-05-04 23:33 52.30407 2.63060 21232 ft 424 kts 69°
2026-05-04 23:33 52.31309 2.67666 21679 ft 427 kts 73°
2026-05-04 23:33 52.32136 2.72347 22120 ft 430 kts 73°
2026-05-04 23:34 52.32965 2.77051 22544 ft 433 kts 73°
2026-05-04 23:34 52.33805 2.81801 22970 ft 436 kts 73°
2026-05-04 23:34 52.34645 2.86575 23387 ft 439 kts 73°
2026-05-04 23:34 52.35489 2.91385 23764 ft 441 kts 73°
2026-05-04 23:35 52.36334 2.96225 24112 ft 443 kts 73°
2026-05-04 23:35 52.37179 3.01092 24453 ft 445 kts 74°
2026-05-04 23:35 52.38024 3.05972 24787 ft 447 kts 74°
2026-05-04 23:35 52.38870 3.10890 25117 ft 449 kts 74°
2026-05-04 23:36 52.39716 3.15820 25442 ft 451 kts 74°
2026-05-04 23:36 52.40569 3.20775 25769 ft 453 kts 74°
2026-05-04 23:36 52.41426 3.25755 26093 ft 455 kts 75°
2026-05-04 23:36 52.42284 3.30762 26415 ft 457 kts 75°
2026-05-04 23:37 52.43142 3.35787 26734 ft 459 kts 75°
2026-05-04 23:37 52.44004 3.40846 27052 ft 462 kts 75°
2026-05-04 23:37 52.44866 3.45920 27363 ft 464 kts 75°
2026-05-04 23:37 52.45727 3.51024 27709 ft 464 kts 76°
2026-05-04 23:38 52.46581 3.56111 28186 ft 462 kts 76°
2026-05-04 23:38 52.47434 3.61185 28619 ft 462 kts 76°
2026-05-04 23:38 52.48291 3.66281 28966 ft 464 kts 76°
2026-05-04 23:38 52.49147 3.71382 29370 ft 463 kts 77°
2026-05-04 23:39 52.50009 3.76535 29817 ft 463 kts 77°
2026-05-04 23:39 52.50857 3.81643 30235 ft 462 kts 77°
2026-05-04 23:39 52.51694 3.86718 30619 ft 461 kts 77°
2026-05-04 23:39 52.52528 3.91799 31018 ft 460 kts 77°
2026-05-04 23:40 52.53359 3.96862 31403 ft 459 kts 77°
2026-05-04 23:40 52.54191 4.01926 31799 ft 458 kts 77°
2026-05-04 23:40 52.55015 4.06960 32226 ft 456 kts 76°
2026-05-04 23:40 52.55838 4.11999 32624 ft 455 kts 76°
2026-05-04 23:41 52.56656 4.17029 33012 ft 455 kts 76°
2026-05-04 23:41 52.57470 4.22044 33389 ft 454 kts 76°
2026-05-04 23:41 52.58282 4.27061 33761 ft 454 kts 76°
2026-05-04 23:41 52.59091 4.32081 34102 ft 454 kts 76°
2026-05-04 23:42 52.59895 4.37097 34393 ft 453 kts 76°
2026-05-04 23:42 52.60696 4.42114 34673 ft 453 kts 76°
2026-05-04 23:42 52.61496 4.47120 34922 ft 454 kts 76°
2026-05-04 23:42 52.62300 4.52154 35001 ft 457 kts 76°
2026-05-04 23:43 52.63925 4.62396 35007 ft 467 kts 76°
2026-05-04 23:43 52.65518 4.72501 35009 ft 468 kts 76°
2026-05-04 23:44 52.67152 4.82890 35016 ft 468 kts 76°
2026-05-04 23:44 52.68782 4.93347 35010 ft 468 kts 76°
2026-05-04 23:45 52.70384 5.03719 35008 ft 468 kts 76°
2026-05-04 23:45 52.71977 5.14141 35006 ft 469 kts 77°
2026-05-04 23:46 52.73777 5.24488 35011 ft 470 kts 67°
2026-05-04 23:46 52.77100 5.33731 35015 ft 469 kts 51°
2026-05-04 23:47 52.81141 5.42199 35014 ft 470 kts 51°
2026-05-04 23:47 52.85152 5.50732 35018 ft 470 kts 52°
2026-05-04 23:48 52.89147 5.59301 35015 ft 470 kts 52°
2026-05-04 23:48 52.93148 5.67891 35020 ft 471 kts 52°
2026-05-04 23:49 52.97152 5.76488 35024 ft 471 kts 52°
2026-05-04 23:49 53.01155 5.85108 35031 ft 471 kts 52°
2026-05-04 23:50 53.05171 5.93812 35035 ft 471 kts 52°
2026-05-04 23:50 53.09158 6.02469 35036 ft 471 kts 52°
2026-05-04 23:51 53.13142 6.11132 35047 ft 471 kts 52°
2026-05-04 23:51 53.17112 6.19815 35026 ft 471 kts 52°
2026-05-04 23:52 53.21081 6.28510 35025 ft 471 kts 52°
2026-05-04 23:52 53.25045 6.37226 35017 ft 471 kts 52°
2026-05-04 23:53 53.28998 6.45975 35025 ft 472 kts 52°
2026-05-04 23:53 53.32943 6.54740 35028 ft 472 kts 52°
2026-05-04 23:54 53.37368 6.62812 35022 ft 470 kts 41°
2026-05-04 23:54 53.42195 6.70204 35025 ft 470 kts 41°
2026-05-04 23:55 53.47017 6.77652 35008 ft 472 kts 41°
2026-05-04 23:56 53.54269 6.88887 35015 ft 473 kts 41°
2026-05-04 23:56 53.59094 6.96532 35032 ft 474 kts 43°
2026-05-04 23:57 53.63750 7.04380 35032 ft 473 kts 44°
2026-05-04 23:57 53.68366 7.12289 35035 ft 473 kts 44°
2026-05-04 23:58 53.73004 7.20181 35037 ft 473 kts 44°
2026-05-04 23:58 53.76875 7.26723 35038 ft 473 kts 44°
2026-05-04 23:59 53.81530 7.34611 35035 ft 474 kts 44°
2026-05-04 23:59 53.86172 7.42537 35031 ft 474 kts 44°
2026-05-05 00:00 53.90808 7.50488 35030 ft 475 kts 44°
2026-05-05 00:00 53.95458 7.58472 35027 ft 475 kts 44°
2026-05-05 00:01 54.00134 7.66524 35031 ft 476 kts 44°
2026-05-05 00:01 54.04781 7.74554 35039 ft 476 kts 44°
2026-05-05 00:02 54.09415 7.82612 35039 ft 476 kts 44°
2026-05-05 00:02 54.14046 7.90689 35034 ft 476 kts 44°
2026-05-05 00:03 54.18672 7.98776 35025 ft 477 kts 44°
2026-05-05 00:03 54.23301 8.06899 35040 ft 477 kts 44°
2026-05-05 00:04 54.27937 8.15048 35032 ft 478 kts 44°
2026-05-05 00:04 54.32567 8.23209 35030 ft 478 kts 44°
2026-05-05 00:05 54.37197 8.31419 35021 ft 478 kts 44°
2026-05-05 00:05 54.41816 8.39641 35017 ft 479 kts 45°
2026-05-05 00:06 54.46440 8.47882 35028 ft 479 kts 44°
2026-05-05 00:06 54.51059 8.56135 35023 ft 478 kts 44°
2026-05-05 00:07 54.55655 8.64412 35012 ft 478 kts 45°
2026-05-05 00:07 54.60255 8.72712 34999 ft 479 kts 45°
2026-05-05 00:08 54.64897 8.81100 35022 ft 480 kts 45°
2026-05-05 00:08 54.69503 8.89455 35028 ft 480 kts 45°
2026-05-05 00:09 54.74098 8.97831 35024 ft 479 kts 45°
2026-05-05 00:09 54.78679 9.06211 35024 ft 479 kts 45°
2026-05-05 00:10 54.83246 9.14597 35020 ft 478 kts 45°
2026-05-05 00:10 54.87791 9.23033 35015 ft 478 kts 46°
2026-05-05 00:11 54.92246 9.31612 35025 ft 478 kts 46°
2026-05-05 00:11 54.96662 9.40264 35022 ft 478 kts 47°
2026-05-05 00:12 55.01085 9.48910 35023 ft 478 kts 46°
2026-05-05 00:12 55.05521 9.57543 35021 ft 478 kts 46°
2026-05-05 00:13 55.09944 9.66190 35019 ft 477 kts 46°
2026-05-05 00:13 55.14379 9.74915 35033 ft 477 kts 47°
2026-05-05 00:14 55.18771 9.83583 35030 ft 475 kts 47°
2026-05-05 00:14 55.23145 9.92252 35027 ft 474 kts 47°
2026-05-05 00:15 55.27507 10.00924 35001 ft 475 kts 47°
2026-05-05 00:15 55.31871 10.09631 34991 ft 475 kts 47°
2026-05-05 00:16 55.36234 10.18374 35012 ft 476 kts 47°
2026-05-05 00:16 55.40591 10.27127 35016 ft 475 kts 47°
2026-05-05 00:17 55.44934 10.35882 35024 ft 474 kts 47°
2026-05-05 00:17 55.49260 10.44651 35021 ft 474 kts 47°
2026-05-05 00:18 55.53576 10.53422 35014 ft 473 kts 47°
2026-05-05 00:18 55.57886 10.62209 34996 ft 473 kts 47°
2026-05-05 00:19 55.62185 10.71004 34992 ft 473 kts 48°
2026-05-05 00:19 55.66513 10.79887 34990 ft 473 kts 48°
2026-05-05 00:20 55.70798 10.88730 34988 ft 473 kts 48°
2026-05-05 00:20 55.75081 10.97605 34989 ft 473 kts 48°
2026-05-05 00:21 55.79364 11.06489 34990 ft 474 kts 48°
2026-05-05 00:21 55.83645 11.15400 34999 ft 474 kts 48°
2026-05-05 00:22 55.87923 11.24352 34993 ft 475 kts 48°
2026-05-05 00:22 55.92200 11.33340 34991 ft 476 kts 48°
2026-05-05 00:23 55.96466 11.42362 34983 ft 476 kts 48°
2026-05-05 00:23 56.00742 11.51398 34984 ft 476 kts 48°
2026-05-05 00:24 56.05013 11.60455 35005 ft 477 kts 48°
2026-05-05 00:24 56.09288 11.69552 34984 ft 478 kts 48°
2026-05-05 00:25 56.13559 11.78701 34981 ft 479 kts 48°
2026-05-05 00:25 56.17827 11.87896 34981 ft 480 kts 48°
2026-05-05 00:26 56.22096 11.97113 34977 ft 480 kts 48°
2026-05-05 00:26 56.26365 12.06344 34996 ft 480 kts 48°
2026-05-05 00:27 56.30636 12.15614 34975 ft 481 kts 48°
2026-05-05 00:27 56.34927 12.24970 34969 ft 481 kts 49°
2026-05-05 00:28 56.39180 12.34284 34971 ft 481 kts 49°
2026-05-05 00:28 56.43426 12.43635 34966 ft 481 kts 49°
2026-05-05 00:29 56.47668 12.52992 34966 ft 481 kts 49°
2026-05-05 00:29 56.51908 12.62373 34973 ft 482 kts 49°
2026-05-05 00:30 56.56144 12.71784 34960 ft 482 kts 49°
2026-05-05 00:30 56.60365 12.81226 34958 ft 482 kts 49°
2026-05-05 00:31 56.63876 12.89098 34956 ft 483 kts 49°
2026-05-05 00:31 56.68098 12.98597 34955 ft 483 kts 49°
2026-05-05 00:32 56.72347 13.08179 34967 ft 484 kts 49°
2026-05-05 00:32 56.76562 13.17743 34940 ft 484 kts 49°
2026-05-05 00:33 56.80781 13.27351 34936 ft 485 kts 49°
2026-05-05 00:33 56.84992 13.36976 34934 ft 485 kts 49°
2026-05-05 00:34 56.89192 13.46620 34930 ft 485 kts 49°
2026-05-05 00:34 56.93395 13.56302 34948 ft 486 kts 49°
2026-05-05 00:35 56.97592 13.66007 34913 ft 486 kts 49°
2026-05-05 00:35 57.01784 13.75755 34915 ft 486 kts 49°
2026-05-05 00:36 57.05995 13.85584 34907 ft 486 kts 49°
2026-05-05 00:36 57.10179 13.95358 34914 ft 487 kts 49°
2026-05-05 00:37 57.14360 14.05178 34952 ft 487 kts 49°
2026-05-05 00:37 57.18530 14.15041 34901 ft 489 kts 49°
2026-05-05 00:38 57.22704 14.24957 34889 ft 490 kts 49°
2026-05-05 00:38 57.26882 14.34911 34893 ft 491 kts 49°
2026-05-05 00:39 57.31061 14.44888 34865 ft 491 kts 50°
2026-05-05 00:39 57.35231 14.54881 34885 ft 490 kts 50°
2026-05-05 00:40 57.39394 14.64919 34904 ft 491 kts 50°
2026-05-05 00:40 57.43548 14.75002 34885 ft 492 kts 50°
2026-05-05 00:41 57.47740 14.85188 34881 ft 493 kts 50°
2026-05-05 00:41 57.51898 14.95331 34870 ft 494 kts 50°
2026-05-05 00:42 57.56054 15.05511 34872 ft 494 kts 50°
2026-05-05 00:42 57.60206 15.15718 34876 ft 495 kts 49°
2026-05-05 00:43 57.64357 15.25983 34836 ft 496 kts 50°
2026-05-05 00:43 57.68493 15.36292 34846 ft 496 kts 50°
2026-05-05 00:44 57.72662 15.46680 34857 ft 505 kts 50°
2026-05-05 00:44 57.76918 15.57322 34851 ft 515 kts 50°
2026-05-05 00:45 57.81182 15.68152 34857 ft 517 kts 51°
2026-05-05 00:45 57.85490 15.79066 34607 ft 514 kts 50°
2026-05-05 00:45 57.87620 15.84439 33909 ft 511 kts 50°
2026-05-05 00:46 57.89775 15.89737 33055 ft 508 kts 45°
2026-05-05 00:46 57.92247 15.94419 32178 ft 502 kts 36°
2026-05-05 00:46 57.94991 15.98509 31432 ft 505 kts 33°
2026-05-05 00:46 57.97770 16.02595 30828 ft 509 kts 33°
2026-05-05 00:47 58.00564 16.06721 30228 ft 511 kts 34°
2026-05-05 00:47 58.03366 16.10881 29767 ft 516 kts 33°
2026-05-05 00:47 58.06190 16.15090 29212 ft 519 kts 33°
2026-05-05 00:47 58.09018 16.19326 28714 ft 519 kts 33°
2026-05-05 00:48 58.11846 16.23570 28213 ft 519 kts 33°
2026-05-05 00:48 58.14678 16.27824 27718 ft 520 kts 34°
2026-05-05 00:48 58.17518 16.32097 27235 ft 520 kts 34°
2026-05-05 00:48 58.20340 16.36355 26764 ft 518 kts 34°
2026-05-05 00:49 58.23148 16.40609 26292 ft 515 kts 34°
2026-05-05 00:49 58.25937 16.44847 25873 ft 512 kts 34°
2026-05-05 00:49 58.28516 16.49560 25416 ft 517 kts 45°
2026-05-05 00:49 58.30732 16.54969 24970 ft 518 kts 50°
2026-05-05 00:50 58.32870 16.60438 24531 ft 515 kts 50°
2026-05-05 00:50 58.34998 16.65904 24102 ft 512 kts 50°
2026-05-05 00:50 58.37109 16.71332 23677 ft 509 kts 50°
2026-05-05 00:50 58.39206 16.76734 23234 ft 506 kts 50°
2026-05-05 00:51 58.41289 16.82112 22725 ft 502 kts 50°
2026-05-05 00:51 58.43385 16.87531 22234 ft 499 kts 50°
2026-05-05 00:51 58.45438 16.92846 21754 ft 496 kts 50°
2026-05-05 00:51 58.47479 16.98133 21309 ft 493 kts 50°
2026-05-05 00:52 58.49514 17.03416 20837 ft 493 kts 50°
2026-05-05 00:52 58.51539 17.08695 20378 ft 491 kts 51°
2026-05-05 00:52 58.53544 17.13944 19900 ft 487 kts 51°
2026-05-05 00:52 58.55538 17.19172 19453 ft 484 kts 51°
2026-05-05 00:53 58.57514 17.24368 19008 ft 482 kts 51°
2026-05-05 00:53 58.59481 17.29545 18575 ft 479 kts 51°
2026-05-05 00:53 58.61439 17.34699 18145 ft 477 kts 51°
2026-05-05 00:53 58.63384 17.39825 17672 ft 474 kts 51°
2026-05-05 00:54 58.65311 17.44918 17209 ft 467 kts 51°
2026-05-05 00:54 58.67192 17.49913 16796 ft 457 kts 51°
2026-05-05 00:54 58.69033 17.54814 16500 ft 447 kts 51°
2026-05-05 00:54 58.70831 17.59608 16234 ft 436 kts 51°
2026-05-05 00:55 58.72610 17.64358 15973 ft 430 kts 51°
2026-05-05 00:55 58.74357 17.69026 15708 ft 428 kts 51°
2026-05-05 00:55 58.76086 17.73659 15455 ft 426 kts 51°
2026-05-05 00:55 58.77810 17.78298 15204 ft 424 kts 51°
2026-05-05 00:56 58.79537 17.82892 15044 ft 421 kts 47°
2026-05-05 00:56 58.81525 17.86974 15079 ft 416 kts 36°
2026-05-05 00:56 58.83808 17.90314 15071 ft 409 kts 25°
2026-05-05 00:56 58.86285 17.92884 14889 ft 402 kts 19°
2026-05-05 00:57 58.88823 17.95277 13964 ft 410 kts 19°
2026-05-05 00:57 58.91367 17.97678 13693 ft 398 kts 19°
2026-05-05 00:57 58.93836 18.00021 13411 ft 395 kts 19°
2026-05-05 00:57 58.96288 18.02345 13061 ft 393 kts 19°
2026-05-05 00:58 58.98731 18.04664 12730 ft 390 kts 19°
2026-05-05 00:58 59.01165 18.06984 12405 ft 388 kts 19°
2026-05-05 00:58 59.03613 18.09322 12067 ft 386 kts 19°
2026-05-05 00:58 59.06011 18.11613 11746 ft 383 kts 19°
2026-05-05 00:59 59.08421 18.13779 11418 ft 377 kts 13°
2026-05-05 00:59 59.10902 18.15136 11105 ft 366 kts
2026-05-05 00:59 59.12556 18.15544 10902 ft 359 kts 356°
2026-05-05 00:59 59.15832 18.15911 10619 ft 344 kts 355°
2026-05-05 01:00 59.18173 18.16192 10489 ft 331 kts 355°
2026-05-05 01:00 59.19679 18.16377 10435 ft 323 kts 355°
2026-05-05 01:00 59.21886 18.16648 10309 ft 312 kts 355°
2026-05-05 01:00 59.24024 18.16909 10141 ft 304 kts 355°
2026-05-05 01:01 59.26141 18.17160 9981 ft 297 kts 355°
2026-05-05 01:01 59.28207 18.17396 9782 ft 297 kts 355°
2026-05-05 01:01 59.30264 18.17630 9548 ft 295 kts 355°
2026-05-05 01:01 59.32313 18.17866 9304 ft 294 kts 355°
2026-05-05 01:02 59.34352 18.18100 9098 ft 293 kts 355°
2026-05-05 01:02 59.36387 18.18332 9014 ft 293 kts 355°
2026-05-05 01:02 59.38422 18.18565 9027 ft 294 kts 355°
2026-05-05 01:02 59.40467 18.18800 9028 ft 294 kts 355°
2026-05-05 01:03 59.42508 18.19040 8771 ft 295 kts 355°
2026-05-05 01:03 59.44553 18.19283 8362 ft 295 kts 355°
2026-05-05 01:03 59.46598 18.19537 7988 ft 295 kts 357°
2026-05-05 01:03 59.48639 18.20297 7659 ft 299 kts
2026-05-05 01:04 59.50661 18.21233 7312 ft 298 kts
2026-05-05 01:04 59.54665 18.23144 6675 ft 294 kts
2026-05-05 01:04 59.56646 18.24099 6358 ft 292 kts
2026-05-05 01:05 59.58601 18.25049 6185 ft 276 kts
2026-05-05 01:05 59.60398 18.25928 6063 ft 255 kts
2026-05-05 01:05 59.62033 18.26728 5921 ft 234 kts
2026-05-05 01:05 59.63601 18.27478 5537 ft 229 kts
2026-05-05 01:06 59.65136 18.28204 5207 ft 225 kts
2026-05-05 01:06 59.66649 18.28808 4899 ft 216 kts 354°
2026-05-05 01:06 59.68039 18.28216 4584 ft 198 kts 326°
2026-05-05 01:06 59.69036 18.26492 4226 ft 187 kts 300°
2026-05-05 01:07 59.69496 18.24146 3898 ft 183 kts 277°
2026-05-05 01:07 59.69382 18.21665 3543 ft 182 kts 259°
2026-05-05 01:07 59.69075 18.19235 3103 ft 187 kts 259°
2026-05-05 01:07 59.68760 18.16732 2812 ft 183 kts 260°
2026-05-05 01:08 59.68455 18.14314 2478 ft 178 kts 260°
2026-05-05 01:08 59.68161 18.11974 1973 ft 174 kts 259°
2026-05-05 01:08 59.67870 18.09650 1491 ft 171 kts 257°
2026-05-05 01:08 59.67592 18.07443 1190 ft 160 kts 257°
2026-05-05 01:09 59.67331 18.05375 944 ft 150 kts 256°
2026-05-05 01:09 59.67091 18.03469 750 ft 138 kts 256°
2026-05-05 01:09 59.66871 18.01733 565 ft 126 kts 255°
2026-05-05 01:09 59.66655 18.00017 402 ft 130 kts 256°
2026-05-05 01:10 59.66430 17.98248 231 ft 134 kts 255°
2026-05-05 01:10 59.66209 17.96527 137 ft 109 kts 256°
2026-05-05 01:10 59.66065 17.95373 136 ft 68 kts 256°
2026-05-05 01:10 59.65989 17.94813 137 ft 31 kts 247°
2026-05-05 01:11 59.65864 17.94505 138 ft 5 kts 226°
2026-05-05 01:11 59.65863 17.94504 138 ft 0 kts 226°
2026-05-05 01:12 59.65861 17.94500 138 ft 2 kts 226°
2026-05-05 01:12 59.65844 17.94464 138 ft 5 kts 226°
2026-05-05 01:12 59.65797 17.94385 138 ft 12 kts 223°
2026-05-05 01:12 59.65721 17.94231 138 ft 19 kts 227°
2026-05-05 01:13 59.65633 17.94018 138 ft 21 kts 240°
2026-05-05 01:13 59.65544 17.93870 138 ft 12 kts 192°
2026-05-05 01:13 59.65508 17.93722 138 ft 13 kts 258°
2026-05-05 01:13 59.65505 17.93696 138 ft 0 kts 258°